User: anonymous   Login
Location: Caltech
(34.1382°N, 118.1253°W)
Time: 04:18:26
(UTC-07:00)
Language:

Gurwin Techsat 1B - Orbit

View from above orbital plane
View from above orbital plane
View from above satellite
View from above satellite

Ground track
Ground track

The orbit data is extracted from the following two-line orbital elements,

1 25397U 98043D   17117.87210180 -.00000007 +00000-0 +15920-4 0  9993
2 25397 098.6063 061.2802 0002118 118.5780 241.5612 14.23620396976415
Epoch (UTC): 27 April 2017 20:55:49
Eccentricity: 0.0002118
inclination: 98.6063°
perigee height: 811 km
apogee height: 814 km
right ascension of ascending node: 61.2802°
argument of perigee: 118.5780°
revolutions per day: 14.23620396
mean anomaly at epoch: 241.5612°
orbit number at epoch: 97641

The dashed part of the orbit path shows where the satellite is in the earth's shadow,  

DLR